Weather History for KFHR - March, 2013

Change the Weather History Date:

Tuesday, March 19, 2013

  Actual Average Record
Temperature  
Mean Temperature 41 °F -  
Max Temperature 50 °F 48 °F 57 °F (1998)
Min Temperature 34 °F 37 °F 28 °F (2012)
Degree Days  
Heating Degree Days 24    
Moisture  
Dew Point 35 °F    
Average Humidity 74    
Maximum Humidity 92    
Minimum Humidity 54    
Precipitation  
Precipitation 0.00 in - - ()
Sea Level Pressure  
Sea Level Pressure 29.93 in    
Wind  
Wind Speed 6 mph (East)    
Max Wind Speed 23 mph    
Max Gust Speed 32 mph    
Visibility 10 miles    
Events      
Averages and records for this station are not official NWS values.
T = Trace of Precipitation, MM = Missing Value Source: NWS Daily Summary

Daily Weather History Graph

Daily Weather History Graph

Search for Another Location

Airport or City:

Trip Planner

Search our weather history database for the weather conditions in past years. The results will help you decide how hot, cold, wet, or windy it might be!

Date:

Astronomy

Mar. 19, 2013 Rise Set
Actual Time 7:16 AM PDT 7:24 PM PDT
Civil Twilight 6:45 AM PDT 7:55 PM PDT
Nautical Twilight 6:08 AM PDT 8:32 PM PDT
Astronomical Twilight 5:30 AM PDT 9:10 PM PDT
Moon 11:44 AM PDT (3/19) 2:41 AM PDT (3/19)
Length of Visible Light 13h 10m
Length of Day
12h 07m
Waxing Crescent, 51% of the Moon is Illuminated
Mar 19
Waxing Crescent
Mar 27
Full
Apr 2
Last Quarter
Apr 10
New
Apr 18
First Quarter

Hourly Weather History & Observations

Time (PDT) Temp. Windchill Dew Point Humidity Pressure Visibility Wind Dir Wind Speed Gust Speed Precip Events Conditions
12:53 AM 34.0 °F - 32.0 °F 92% 30.23 in 10.0 mi Calm Calm - N/A   Clear
1:53 AM 35.1 °F - 32.0 °F 89% 30.22 in 10.0 mi Calm Calm - N/A   Clear
2:53 AM 37.0 °F - 34.0 °F 89% 30.22 in 10.0 mi Calm Calm - N/A   Clear
3:53 AM 36.0 °F 33.3 °F 32.0 °F 86% 30.20 in 10.0 mi North 3.5 mph - N/A   Clear
4:53 AM 39.0 °F 36.8 °F 30.9 °F 73% 30.18 in 10.0 mi East 3.5 mph - N/A   Clear
5:53 AM 37.9 °F 33.5 °F 32.0 °F 79% 30.15 in 10.0 mi North 5.8 mph - N/A   Clear
6:53 AM 36.0 °F - 30.9 °F 82% 30.13 in 10.0 mi Calm Calm - N/A   Clear
7:53 AM 35.1 °F - 32.0 °F 89% 30.11 in 10.0 mi Calm Calm - N/A   Clear
8:53 AM 39.0 °F - 35.1 °F 86% 30.10 in 10.0 mi Calm Calm - N/A   Clear
9:53 AM 41.0 °F 39.0 °F 33.1 °F 73% 30.08 in 10.0 mi North 3.5 mph - N/A   Clear
10:53 AM 43.0 °F 37.2 °F 30.0 °F 60% 30.06 in 10.0 mi NE 10.4 mph - N/A   Clear
11:53 AM 45.0 °F 40.6 °F 30.9 °F 58% 30.03 in 10.0 mi ENE 8.1 mph 16.1 mph N/A   Clear
12:53 PM 46.0 °F 43.1 °F 30.9 °F 56% 29.99 in 10.0 mi ENE 5.8 mph - N/A   Scattered Clouds
1:53 PM 46.0 °F 41.4 °F 32.0 °F 58% 29.93 in 10.0 mi NNE 9.2 mph - N/A   Mostly Cloudy
2:53 PM 48.0 °F - 32.0 °F 54% 29.89 in 10.0 mi NE 5.8 mph - N/A   Overcast
3:53 PM 48.9 °F - 35.1 °F 59% 29.86 in 10.0 mi ESE 6.9 mph - N/A   Overcast
4:53 PM 48.0 °F - 37.9 °F 68% 29.83 in 10.0 mi SE 23.0 mph 29.9 mph N/A   Overcast
5:53 PM 46.9 °F - 37.9 °F 71% 29.79 in 10.0 mi SSE 17.3 mph 26.5 mph N/A   Overcast
6:53 PM 46.0 °F 38.8 °F 39.0 °F 76% 29.75 in 10.0 mi SE 18.4 mph 28.8 mph N/A   Overcast
7:53 PM 45.0 °F 36.9 °F 39.9 °F 82% 29.72 in 10.0 mi ESE 20.7 mph 31.1 mph 0.00 in   Overcast
8:34 PM 46.4 °F 40.1 °F 37.4 °F 71% 29.69 in 10.0 mi ESE 15.0 mph 25.3 mph N/A   Overcast
8:53 PM 46.0 °F 39.3 °F 37.9 °F 73% 29.67 in 10.0 mi ESE 16.1 mph 25.3 mph N/A   Overcast
9:05 PM 46.4 °F 39.2 °F 37.4 °F 71% 29.65 in 10.0 mi ESE 18.4 mph 25.3 mph N/A   Overcast
9:53 PM 46.0 °F 38.3 °F 37.9 °F 73% 29.62 in 10.0 mi ESE 20.7 mph 32.2 mph N/A   Overcast
10:53 PM 46.0 °F 39.0 °F 39.0 °F 76% 29.58 in 10.0 mi ESE 17.3 mph 27.6 mph N/A   Overcast
11:53 PM 46.0 °F 38.8 °F 39.9 °F 79% 29.54 in 10.0 mi ESE 18.4 mph 25.3 mph N/A   Overcast